User: anonymous   Login
Location: ?
(35.4996°N, 139.3166°E)
Time: 08:29:54
(UTC+00:00)
Language:

Cosmos 1980 Rocket - Orbit

View from above orbital plane
View from above orbital plane
View from above satellite
View from above satellite

Ground track
Ground track

The orbit data is extracted from the following two-line orbital elements,

1 19650U 88102B   24169.95077388  .00000330  00000-0  19146-3 0  9999
2 19650  71.0006  36.3733 0016291 251.9685 107.9663 14.15977209837743
Epoch (UTC): 17 June 2024 22:49:06
Eccentricity: 0.0016291
inclination: 71.0006°
perigee height: 827 km
apogee height: 851 km
right ascension of ascending node: 36.3733°
argument of perigee: 251.9685°
revolutions per day: 14.15977209
mean anomaly at epoch: 107.9663°
orbit number at epoch: 83774

The dashed part of the orbit path shows where the satellite is in the earth's shadow,  

DLR